Location: Buckeye Ditch
(40.9104°N, 122.9517°W)
Time: 22:41:43
(UTC+00:00)

BlueWalker 3 - Visible Passes

Search period start: 18 November 2025 00:00
Search period end: 28 November 2025 00:00
Orbit: 456 x 463 km, 53.2° (Epoch: 18 November)

Date Brightness Start Highest point End Pass type
(mag) Time Alt. Az. Time Alt. Az. Time Alt. Az.
18 Nov 2.6 02:34:34 10° SSW 02:37:29 37° SSE 02:37:29 37° SSE visible
19 Nov 2.8 02:00:18 10° SSW 02:03:31 30° SE 02:04:43 24° E visible
19 Nov 4.8 03:37:39 10° W 03:38:33 16° W 03:38:33 16° W visible
20 Nov 3.2 01:26:08 10° S 01:29:03 23° SE 01:31:52 11° ENE visible
20 Nov 3.1 03:02:57 10° WSW 03:05:41 37° WNW 03:05:41 37° WNW visible
21 Nov 2.2 02:28:17 10° WSW 02:31:51 54° NW 02:32:44 41° NNE visible
22 Nov 1.9 01:53:40 10° WSW 01:57:16 69° NW 01:59:42 20° NE visible
22 Nov 4.8 03:32:52 10° WNW 03:33:29 13° NW 03:33:29 13° NW visible
23 Nov 1.8 01:19:04 10° SW 01:22:41 89° NW 01:26:20 10° NE visible
23 Nov 4.0 02:57:58 10° WNW 03:00:22 19° NNW 03:00:22 19° NNW visible
24 Nov 3.6 02:23:04 10° WNW 02:25:58 22° NNW 02:27:11 18° N visible
25 Nov 3.5 01:48:11 10° W 01:51:15 25° NNW 01:53:57 12° NNE visible
26 Nov 3.2 01:13:19 10° W 01:16:33 29° NNW 01:19:47 10° NE visible
26 Nov 4.4 02:53:21 10° NW 02:54:27 12° NNW 02:54:27 12° NNW visible
27 Nov 4.1 02:18:22 10° NW 02:20:14 13° N 02:21:08 12° N visible
